Regional Weather Roundup
Issued by NWS

Home | Current Version | Previous Version | Text Only | Print | Product List | Glossary On
Versions: 1 2 3 4 5 6 7 8 9 10 11 12 13 14 15 16 17 18 19 20 21 22 23 24 25 26 27 28 29 30 31 32 33 34 35 36 37 38 39 40 41 42 43 44 45 46 47 48 49 50
681
ASUS43 KDMX 061808
RWRIA

WEATHER ROUNDUP FOR IOWA
NATIONAL WEATHER SERVICE DES MOINES IA
1200 PM CST SAT FEB 06 2016

NOTE: "FAIR" INDICATES FEW OR NO CLOUDS BELOW 12,000 FEET WITH NO
SIGNIFICANT WEATHER AND/OR OBSTRUCTIONS TO VISIBILITY.

* - THESE STATIONS ARE NOT NWS STATIONS...THUS NOT UNDER NWS
QUALITY CONTROL.  THEY ALSO DO NOT REPORT WEATHER SUCH
AS PRECIPITATION OR FOG.

IAZ001>003-012>014-020>022-031>034-043>046-061900-
   NORTHWEST IOWA

CITY           SKY/WX    TMP DP  RH WIND       PRES   REMARKS
CARROLL *      CLOUDY    30  30 100 SW15      30.17F WCI  19
CHEROKEE *     SUNNY     31  31 100 S13       30.12F WCI  21
DENISON *      SUNNY     32  28  86 SW10      30.15F WCI  24
LE MARS *      SUNNY     28  28 100 S12       30.11F WCI  18
ORANGE CITY *  SUNNY     28  27  93 S12       30.08F WCI  18
SHELDON *      SUNNY     27  28 100 S15       30.07F WCI  15
SIOUX CITY     SUNNY     31  25  78 SE6       30.13F WCI  25
6HR MIN TEMP:  14; 6HR MAX TEMP:  31;

SPENCER        SUNNY     30  26  85 S13       30.10F WCI  20
6HR MIN TEMP:  26; 6HR MAX TEMP:  30;

STORM LAKE *   MOSUNNY   28  30 100 SW12      30.13F WCI  18
$$

IAZ055>058-069>071-079>083-090>094-061900-
   SOUTHWEST IOWA

CITY           SKY/WX    TMP DP  RH WIND       PRES   REMARKS
ATLANTIC *     CLOUDY    32  30  93 SW12G17   30.21F FOG     WCI  23
AUDUBON *      CLOUDY    30  28  93 SW8       30.21S FOG     WCI  23
CLARINDA *     MOSUNNY   39  34  81 SW8       30.25S WCI  34
COUNCIL BLFS * SUNNY     32  28  86 SW9       30.21F WCI  24
CRESTON *      CLOUDY    30  30 100 SW8       30.22F FOG     WCI  23
HARLAN  *      CLOUDY    30  30 100 S12G17    30.23F FOG     WCI  21
LAMONI         CLOUDY    30  29  96 W8        30.23F FOG     WCI  22
6HR MIN TEMP:  22; 6HR MAX TEMP:  31;

RED OAK *      MOSUNNY   34  32  93 SW8       30.23F WCI  27
SHENANDOAH *   SUNNY     37  36  93 SW10      30.25S WCI  30
$$

IAZ047>049-059>061-072>074-084-061900-
   CENTRAL IOWA

CITY           SKY/WX    TMP DP  RH WIND       PRES   REMARKS
AMES           CLOUDY    29  27  92 SW13      30.20F FOG     WCI  19
6HR MIN TEMP:  28; 6HR MAX TEMP:  30;

ANKENY *       CLOUDY    32  30  93 SW8       30.20F WCI  25
BOONE *        CLOUDY    28  27  93 SW12      30.18F WCI  18
CHARITON *     CLOUDY    32  30  93 SW6       30.22F WCI  26
DES MOINES     CLOUDY    32  27  81 SW8       30.21F HAZE    WCI  25
6HR MIN TEMP:  28; 6HR MAX TEMP:  32;

GRINNELL*      CLOUDY    32  30  93 SW10      30.20F FOG     WCI  24
KNOXVILLE *    CLOUDY    30  28  93 SW8       30.21F FOG     WCI  23
MARSHALLTOWN   CLOUDY    30  28  92 SW12      30.18F FOG     WCI  20
6HR MIN TEMP:  29; 6HR MAX TEMP:  30;

NEWTON *       CLOUDY    30  30 100 SW10      30.20F FOG     WCI  21
PELLA *        FOG       30  29  93 W7        30.23F VSB 1   WCI  24
$$

IAZ004>006-015-016-023>025-035-036-061900-
   NORTH CENTRAL IOWA

CITY           SKY/WX    TMP DP  RH WIND       PRES   REMARKS
ALGONA *       FOG       28  28 100 SW18      30.12F VSB 1/4 WCI  16
CLARION *      FOG       28  28 100 SW16      30.16F VSB 1/4 WCI  17
ESTHERVILLE    CLOUDY    28  26  92 S16       30.09F WCI  16
6HR MIN TEMP:  24; 6HR MAX TEMP:  28;

FORT DODGE *   CLOUDY    28  25  86 SW12G18   30.18S WCI  18
MASON CITY     CLOUDY    28  27  96 SW12      30.15S FOG     WCI  18
6HR MIN TEMP:  24; 6HR MAX TEMP:  28;

FOREST CITY *  FOG       28  28 100 S10       30.13F VSB 1/2 WCI  19
WEBSTER CITY * FOG       28  28 100 SW15      30.16S VSB 1/2 WCI  17
IOWA FALLS *   CLOUDY    30  28  93 SW12      30.18F FOG     WCI  21
$$

IAZ007>011-017>019-026>030-037>042-050>054-066-061900-
   NORTHEAST IOWA

CITY           SKY/WX    TMP DP  RH WIND       PRES   REMARKS
CEDAR RAPIDS   CLOUDY    33  30  88 SW8       30.19F WCI  26
6HR MIN TEMP:  28; 6HR MAX TEMP:  33;

CHARLES CITY * CLOUDY    27  27 100 SW13      30.17F WCI  16
CLINTON *      SUNNY     38  26  62 W10       30.21F WCI  31
DECORAH *      CLOUDY    28  27  93 W8        30.15F WCI  20
DUBUQUE        CLOUDY    29  27  92 W14       30.18F WCI  18
6HR MIN TEMP:  27; 6HR MAX TEMP:  30;

MONTICELLO *   CLOUDY    32  28  86 SW8       30.20F WCI  25
OELWEIN *      CLOUDY    30  30 100 SW9       30.18F FOG     WCI  22
WATERLOO       CLOUDY    30  26  85 SW12      30.18F FOG     WCI  20
6HR MIN TEMP:  29; 6HR MAX TEMP:  30;

$$

IAZ064-065-067-068-078-061900-
   EAST CENTRAL IOWA

CITY           SKY/WX    TMP DP  RH WIND       PRES   REMARKS
DAVENPORT      SUNNY     37  26  64 W10       30.22F WCI  30
6HR MIN TEMP:  26; 6HR MAX TEMP:  37;

IOWA CITY      CLOUDY    35  28  75 W5        30.23F WCI  31
6HR MIN TEMP:  22; 6HR MAX TEMP:  34;

MT. PLEASANT * SUNNY     43  31  62 SW3       30.23F
MUSCATINE *    SUNNY     39  28  65 W7        30.24F WCI  34
QUAD CITIES    SUNNY     41  24  51 SW12      30.21F
6HR MIN TEMP:  27; 6HR MAX TEMP:  41;

$$

IAZ062-063-075>077-085>089-095>099-061900-
   SOUTHEAST IOWA

CITY           SKY/WX    TMP DP  RH WIND       PRES   REMARKS
BURLINGTON     SUNNY     42  26  53 SW8       30.22F
6HR MIN TEMP:  23; 6HR MAX TEMP:  42;

FAIRFIELD *    SUNNY     39  30  70 SW8       30.22F WCI  34
FORT MADISON * SUNNY     41  28  60 S3        30.24F
KEOKUK *       SUNNY     43  27  52 VRB6      30.23F
OSKALOOSA *      N/A     37  31  79 W8        30.22F WCI  31
CENTERVILLE *    N/A    N/A N/A N/A MISG        N/A
OTTUMWA        SUNNY     40  31  70 W8        30.22F WCI  34
6HR MIN TEMP:  21; 6HR MAX TEMP:  40;

WASHINGTON *   SUNNY     39  30  70 W9        30.23F WCI  33
$$

ABBREVIATIONS USED IN REMARKS
   TC - TEMPERATURES IN CELSIUS
  WCI - WIND CHILL INDEX
   HX - HEAT INDEX
  VSB - VISIBILITY
$$





USA.gov is the U.S. government's official web portal to all federal, state and local government web resources and services.